Regional Weather Roundup
Issued by NWS

Home | Current Version | Previous Version | Graphics & Text | Print | Product List | Glossary On
Versions: 1 2 3 4 5 6 7 8 9 10 11 12 13 14 15 16 17 18 19 20 21 22 23 24 25 26 27 28 29 30 31 32 33 34 35 36 37 38 39 40 41 42 43 44 45 46 47 48 49 50
000
ASUS43 KMKX 262100
RWRWI

WISCONSIN REGIONAL WEATHER ROUNDUP
NATIONAL WEATHER SERVICE MILWAUKEE/SULLIVAN WI
300 PM CST SUN FEB 26 2017

NOTE: "FAIR" INDICATES FEW OR NO CLOUDS BELOW 12,000 FEET WITH NO
SIGNIFICANT WEATHER AND/OR OBSTRUCTIONS TO VISIBILITY.

WIZ001-002-006>008-014>016-023>028-262200-
NORTHWEST WISCONSIN

CITY           SKY/WX    TMP DP  RH WIND       PRES   REMARKS
SUPERIOR ARPT  SUNNY     26   6  43 NW15G22   29.82R WCI  13
ASHLAND        MOSUNNY   27  12  53 W16       29.79R WCI  15
HAYWARD        MOSUNNY   31  12  45 NW10G21   29.76R WCI  22
SIREN          MOSUNNY   32  11  43 NW12G22   29.79R WCI  23
CUMBERLAND     PTSUNNY   32  19  59 W16G22    29.76R WCI  21
RICE LAKE      PTSUNNY   32  25  74 W10       29.78R WCI  24
CHETEK         CLOUDY    34  21  59 W13       29.76R WCI  25
LADYSMITH      CLOUDY    33  22  64 W12       29.76R WCI  24
EAU CLAIRE     NOT AVBL
MENOMONIE      MOSUNNY   37  23  58 SW13      29.79R WCI  28
NEW RICHMOND   MOSUNNY   37  15  40 NW16G26   29.78R WCI  28
OSCEOLA        CLOUDY    33  19  54 W13G20    29.82R WCI  24
$$

WIZ003>005-009-010-017-018-262200-
NORTH CENTRAL WISCONSIN

CITY           SKY/WX    TMP DP  RH WIND       PRES   REMARKS
MANITOWISH WTR LGT SNOW  27  23  87 NW15G25   29.68R VSB 3/4 WCI  15
ARBOR VITAE    PTSUNNY   32  25  75 W14G21      N/A  WCI  22
WOODRUFF       PTSUNNY   32  25  75 W14G21      N/A  WCI  22
RHINELANDER    LGT SNOW  30  23  75 W17G35    29.69R WCI  18
EAGLE RIVER    SNOW      28  24  84 W12G21    29.67R VSB 1/4 WCI  18
LAND O LAKES   MOSUNNY   31  23  72 W12G20    29.66R WCI  22
PHILLIPS       LGT SNOW  29  24  82 W10G16    29.71R WCI  19
TOMAHAWK       CLOUDY    32  19  59 W7G18     29.71S WCI  26
MEDFORD        CLOUDY    32  20  62 SW13G22   29.74R WCI  22
MERRILL        NOT AVBL
$$

WIZ029-030-035-036-043>047-262200-
CENTRAL WISCONSIN

CITY           SKY/WX    TMP DP  RH WIND       PRES   REMARKS
WAUSAU         CLOUDY    34  21  59 W16       29.74R WCI  24
MOSINEE        PTSUNNY   34  21  60 SW17G23   29.76R WCI  23
MARSHFIELD     SUNNY     34  19  54 W15       29.75S WCI  24
STEVENS POINT  CLOUDY    35  19  53 W13G18    29.77R WCI  26
WAUPACA        PTSUNNY   41  18  39 W22G30    29.78R
WAUTOMA        CLOUDY    39  21  48 W22G29    29.80R WCI  29
WISC RAPIDS    CLOUDY    38  20  48 W14G26    29.79R WCI  30
CAMP DOUGLAS   NOT AVBL
$$

WIZ011>013-019>022-031-037>040-048>050-262200-
NORTHEAST WISCONSIN

CITY           SKY/WX    TMP DP  RH WIND       PRES   REMARKS
ANTIGO         CLOUDY    31  22  70 W15G23    29.71S WCI  20
SHAWANO        CLOUDY    40  20  45 W12G24    29.76R WCI  32
OCONTO         PTSUNNY   38  21  50 W13G23    29.75S WCI  30
STURGEON BAY   MOSUNNY   37  23  56 SW17      29.75S WCI  27
GREEN BAY      PTSUNNY   40  26  57 SW10      29.77S WCI  33
MANITOWOC      NOT AVBL
APPLETON       PTSUNNY   39  21  48 SW16      29.77R WCI  30
CLINTONVILLE   CLOUDY    37  19  48 W14G22    29.76S WCI  29
OSHKOSH        SUNNY     38  24  57 SW14G21   29.80R WCI  30
$$

WIZ032>034-041-042-053>061-262200-
SOUTHWEST WISCONSIN

CITY           SKY/WX    TMP DP  RH WIND       PRES   REMARKS
LA CROSSE      SUNNY     41  25  53 W14       29.84R
SPARTA         PTSUNNY   40  25  54 SW10      29.82S WCI  33
VIROQUA        SUNNY     38  23  56 W14       29.83S WCI  29
BOSCOBEL       SUNNY     43  24  47 W14G22    29.87R
PRAIRIE DU CHI SUNNY     42  24  47 SW14G20   29.87S
PLATTEVILLE    SUNNY     42  27  54 W18G26    29.87S
$$

WIZ056-057-062-063-064-067-068-262200-
SOUTH CENTRAL WISCONSIN

CITY           SKY/WX    TMP DP  RH WIND       PRES   REMARKS
REEDSBURG      MOSUNNY   39  24  55 SW14G23   29.84R WCI  31
BARABOO/DELLS  MOSUNNY   39  23  53 W15G22    29.82S WCI  30
LONE ROCK      NOT AVBL
MINERAL POINT  MOSUNNY   43  30  61 SW12G17   29.85S
MADISON        MOSUNNY   41  25  53 SW8G20    29.85S
MIDDLETON      SUNNY     42  29  59 W12       29.85S
WATERTOWN      MOSUNNY   41  28  60 SW15G22   29.84S
MONROE         SUNNY     43  23  45 SW20G31   29.86S
JANESVILLE     MOSUNNY   46  25  42 SW18G24   29.87F
$$

WIZ051-052-058>065-066-070>072-262200-
SOUTHEAST WISCONSIN

CITY           SKY/WX    TMP DP  RH WIND       PRES   REMARKS
MILWAUKEE      MOSUNNY   44  23  43 W22G32    29.87S
WAUKESHA       MOSUNNY   39  25  56 SW17G26   29.86S WCI  30
MILWAUKEE/TIMM MOSUNNY   43  23  45 SW18G24   29.86S
RACINE         SUNNY     45  23  42 W17G26    29.88F
KENOSHA        SUNNY     45  26  47 W18G28    29.88S
FOND DU LAC    SUNNY     38  25  59 SW13G21   29.82S WCI  30
SHEBOYGAN      SUNNY     38  25  59 SW22      29.82S WCI  27
WEST BEND      SUNNY     39  28  65 W16G22    29.83S WCI  30
JUNEAU         SUNNY     37  28  68 SW15      29.85S WCI  28
$$

LSZ147-162-262200-
LAKE SUPERIOR

STATION/POSITION TIME  TEMP    WIND        PRES    WAVE
                       AIR SEA DIR/SP/G            HT/PER
                 (UTC) (F)     (DEG/KT/KT) (MB)    (FT/S)
DEVILS ISLAND    2000   24     290/ 23/ 26 1008.4R
PORT WING        2030   25     300/ 14/ 19 1009.5R
SAXON HARBOR     2040   27     300/ 12/ 19 1008.1R
$$

LMZ867-665-643>646-262200-
LAKE MICHIGAN

STATION/POSITION TIME  TEMP    WIND        PRES    WAVE
                       AIR SEA DIR/SP/G            HT/PER
                 (UTC) (F)     (DEG/KT/KT) (MB)    (FT/S)
CHAMBERS ISLAND  2040   35     190/  6/ 15 1006.4S
NORTHPORT PIER   2040   36     220/  5/ 16 1006.8S
SISTER BAY       2005   36     240/ 19/ 24   N/A
KEWAUNEE LAKESHO 2030   38     250/ 11/ 17 1008.1S
SHEBOYGAN LAKESH 2000   38     240/ 15/ 17 1010.4F
PORT WASHINGTON  2040   43     260/ 10/ 20 1011.5S
MILWAUKEE LAKESH 2030   42     250/ 17/ 21   N/A
KENOSHA   LAKESH 2000   43     240/ 17/ 27 1012.2
$$

TC  - TEMPERATURE IN CELSIUS
VSB - VISIBILITY IN STATUTE MILES
WCI - WIND CHILL INDEX
HX  - HEAT INDEX





USA.gov is the U.S. government's official web portal to all federal, state and local government web resources and services.